OneWeb SL0559

operational
NORAD ID: 56060 Int'l Des: 2023-043 Owner: ONEWEBN Country: UK Constellation: oneweb
LEOCIRCULARPOLARONEWEB_TYPE

About OneWeb SL0559

Description loading...

Live Position

Loading 3D Globe...

Upcoming Passes

Altitude History

Altitude vs Time

uPlot chart will show altitude changes over time

Two-Line Element Set

1 56060U 23043Q 26033.61707557 .00000014 00000-0 26748-5 0 9998
2 56060 87.9195 270.8199 0001259 86.6662 273.4616 13.21824901140471
Epoch: Feb 2, 2026 • Age: 17 hours

Current Status

Altitude 1183.5 km
Velocity 7.27 km/s
Sub-Earth Point 43.41°N, 28.47°E
Launch Date Mar 26, 2023
Age 2.8 years
Type internet

Technical Details

Classification Payload
Mass 148.00 kg
Dry Mass 140.00 kg
Total Mass 148.00 kg
Length 1.30 m
Diameter 1.00 m
Span 5.00 m
Shape Trapezoid+2 pan
Manufacturer ONEWUS
Bus Type ARROW
Phase Status In Orbit
Owner/State ONEWEBN/UK

Large Constellations

Loading constellations...